Weather History for Artesia, NM

Change the Weather History Date:

Thursday, September 12, 2013

  Actual Average Record
Temperature  
Mean Temperature 66 °F -  
Max Temperature 68 °F 87 °F 98 °F (1974)
Min Temperature 64 °F 56 °F 46 °F (1986)
Cooling Degree Days 1    
Growing Degree Days 16 (Base 50)    
Moisture  
Dew Point 66 °F    
Average Humidity 100    
Maximum Humidity 100    
Minimum Humidity 94    
Precipitation  
Precipitation 1.21 in - - ()
Sea Level Pressure  
Sea Level Pressure 30.12 in    
Wind  
Wind Speed 8 mph (NNE)    
Max Wind Speed 13 mph    
Max Gust Speed 21 mph    
Visibility 6 miles    
Events Rain , Thunderstorm    
Averages and records for this station are not official NWS values.
T = Trace of Precipitation, MM = Missing Value Source: NWS Daily Summary

Daily Weather History Graph

Daily Weather History Graph

Search for Another Location

Airport:

Trip Planner

Search our weather history database for the weather conditions in past years. The results will help you decide how hot, cold, wet, or windy it might be!

Date:

Astronomy

Sep. 12, 2013 Rise Set
Actual Time 6:39 AM MDT 7:07 PM MDT
Civil Twilight 6:14 AM MDT 7:32 PM MDT
Nautical Twilight 5:45 AM MDT 8:01 PM MDT
Astronomical Twilight 5:16 AM MDT 8:31 PM MDT
Moon 1:48 PM MDT (9/12) No Moon Set
Length of Visible Light 13h 17m
Length of Day
12h 27m
Waxing Crescent, 51% of the Moon is Illuminated
Sep 12
Waxing Crescent
Sep 19
Full
Sep 26
Last Quarter
Oct 4
New
Oct 11
First Quarter

Hourly Weather History & Observations

Time (MDT) Temp. Dew Point Humidity Pressure Visibility Wind Dir Wind Speed Gust Speed Precip Events Conditions
12:15 AM 64.4 °F 64.4 °F 100% 30.14 in 4.0 mi North - - 0.06 in Rain Heavy Rain
12:35 AM 64.4 °F 64.4 °F 100% 30.13 in 8.0 mi North 11.5 mph - 0.09 in Rain Light Rain
12:55 AM 64.4 °F 64.4 °F 100% 30.12 in 4.0 mi NNE 8.1 mph - 0.11 in Rain Rain
1:15 AM 64.4 °F 64.4 °F 100% 30.13 in 1.5 mi North 11.5 mph 20.7 mph 0.18 in Rain , Thunderstorm Heavy Rain
1:35 AM 64.4 °F 64.4 °F 100% 30.12 in 10.0 mi North 11.5 mph - 0.20 in Rain Light Rain
1:55 AM 64.4 °F 64.4 °F 100% 30.12 in 2.5 mi North 12.7 mph 17.3 mph 0.27 in Rain Heavy Rain
2:15 AM 64.4 °F 64.4 °F 100% 30.12 in 1.8 mi NNE 9.2 mph - 0.10 in Rain Heavy Rain
2:35 AM 64.4 °F 64.4 °F 100% 30.12 in 4.0 mi NNE 8.1 mph - 0.14 in Rain Rain
2:55 AM 64.4 °F 64.4 °F 100% 30.12 in 4.0 mi NNE 6.9 mph - 0.18 in Rain Rain
3:15 AM 64.4 °F 64.4 °F 100% 30.12 in 3.0 mi NE 4.6 mph - 0.04 in Rain Rain
3:35 AM 66.2 °F 66.2 °F 100% 30.12 in 4.0 mi ENE 5.8 mph - 0.11 in Rain Rain
3:55 AM 66.2 °F 66.2 °F 100% 30.11 in 4.0 mi East 6.9 mph - 0.15 in Rain Rain
4:15 AM 66.2 °F 66.2 °F 100% 30.10 in 4.0 mi East 8.1 mph - 0.05 in Rain Rain
4:35 AM 66.2 °F 66.2 °F 100% 30.10 in 5.0 mi East 4.6 mph - 0.10 in Rain Rain
4:55 AM 66.2 °F 66.2 °F 100% 30.10 in 5.0 mi ESE 5.8 mph - 0.14 in Rain Light Rain
5:15 AM 66.2 °F 66.2 °F 100% 30.11 in 4.0 mi East 4.6 mph - 0.05 in Rain Rain
5:35 AM 66.2 °F 66.2 °F 100% 30.11 in 4.0 mi ESE 5.8 mph - 0.14 in Rain Light Rain
5:55 AM 66.2 °F 66.2 °F 100% 30.11 in 7.0 mi ESE 6.9 mph - 0.19 in Rain Light Rain
6:15 AM 66.2 °F 66.2 °F 100% 30.12 in 5.0 mi SE 9.2 mph 16.1 mph 0.01 in Rain Light Rain
6:35 AM 66.2 °F 66.2 °F 100% 30.12 in 9.0 mi SE 10.4 mph - 0.02 in Rain Light Rain
6:55 AM 66.2 °F 66.2 °F 100% 30.13 in 10.0 mi SE 8.1 mph - 0.02 in   Partly Cloudy
7:15 AM 66.2 °F 66.2 °F 100% 30.13 in 10.0 mi SSE 10.4 mph - N/A Rain Light Rain
7:35 AM 66.2 °F 66.2 °F 100% 30.14 in 10.0 mi SE 9.2 mph - N/A   Mostly Cloudy
8:15 AM 66.2 °F 66.2 °F 100% 30.15 in 10.0 mi SE 6.9 mph - N/A   Overcast
8:35 AM 66.2 °F 66.2 °F 100% 30.15 in 9.0 mi ESE 6.9 mph - N/A   Overcast
8:55 AM 66.2 °F 66.2 °F 100% 30.16 in 9.0 mi SE 8.1 mph - N/A Rain Light Rain
9:15 AM 66.2 °F 66.2 °F 100% 30.17 in 9.0 mi SE 8.1 mph - N/A   Overcast
9:35 AM 66.2 °F 66.2 °F 100% 30.18 in 4.0 mi SSE 8.1 mph - 0.02 in Rain Light Rain
9:55 AM 66.2 °F 66.2 °F 100% 30.18 in 3.0 mi SE 8.1 mph - 0.06 in   Overcast
10:15 AM 66.2 °F 66.2 °F 100% 30.18 in 3.0 mi SSE 9.2 mph - 0.01 in Rain Light Rain
10:35 AM 66.2 °F 66.2 °F 100% 30.19 in 4.0 mi SSE 6.9 mph - 0.02 in Rain Light Rain
11:35 AM 66.2 °F 66.2 °F 100% 30.18 in 4.0 mi SSE 6.9 mph - 0.01 in Rain Light Rain
12:15 PM 66.2 °F 66.2 °F 100% 30.18 in 4.0 mi South 5.8 mph - 0.02 in Rain Light Rain
12:35 PM 66.2 °F 66.2 °F 100% 30.17 in 6.0 mi South 5.8 mph - 0.04 in Rain Light Rain
1:15 PM 66.2 °F 66.2 °F 100% 30.16 in 5.0 mi SW 4.6 mph - 0.02 in Rain Light Rain
1:35 PM 66.2 °F 66.2 °F 100% 30.15 in 4.0 mi SW 4.6 mph - 0.02 in Rain Light Rain
3:35 PM 68.0 °F 66.2 °F 94% 30.11 in 5.0 mi West 5.8 mph - N/A   Scattered Clouds
3:55 PM 68.0 °F 66.2 °F 94% 30.11 in 10.0 mi West 6.9 mph - N/A   Mostly Cloudy
4:15 PM 68.0 °F 66.2 °F 94% 30.11 in 10.0 mi WNW 5.8 mph - N/A   Mostly Cloudy
4:35 PM 68.0 °F 66.2 °F 94% 30.11 in 9.0 mi WNW 5.8 mph - N/A   Mostly Cloudy
4:55 PM 68.0 °F 68.0 °F 100% 30.11 in 7.0 mi NW 5.8 mph - N/A Rain Light Rain
5:15 PM 68.0 °F 68.0 °F 100% 30.11 in 9.0 mi NW 6.9 mph - N/A   Partly Cloudy
5:35 PM 68.0 °F 68.0 °F 100% 30.10 in 7.0 mi NW 6.9 mph - N/A Rain Light Rain
5:55 PM 68.0 °F 68.0 °F 100% 30.10 in 8.0 mi NNW 6.9 mph - N/A Rain Light Rain
6:15 PM 68.0 °F 68.0 °F 100% 30.09 in 5.0 mi North 8.1 mph - N/A Rain Light Rain
6:35 PM 68.0 °F 68.0 °F 100% 30.09 in 6.0 mi NNW 6.9 mph - N/A   Clear
6:55 PM 66.2 °F 66.2 °F 100% 30.09 in 7.0 mi NNW 6.9 mph - N/A   Clear
7:15 PM 66.2 °F 66.2 °F 100% 30.09 in 7.0 mi North 6.9 mph - N/A   Clear
7:35 PM 66.2 °F 66.2 °F 100% 30.09 in 8.0 mi North 4.6 mph - N/A   Clear
7:55 PM 66.2 °F 66.2 °F 100% 30.10 in 7.0 mi North 4.6 mph - N/A   Clear
8:15 PM 66.2 °F 66.2 °F 100% 30.10 in 7.0 mi NNE 3.5 mph - N/A   Partly Cloudy
8:35 PM 66.2 °F 66.2 °F 100% 30.11 in 5.0 mi North 4.6 mph - N/A   Partly Cloudy
8:55 PM 66.2 °F 66.2 °F 100% 30.11 in 6.0 mi NNE 5.8 mph - N/A   Partly Cloudy
9:15 PM 66.2 °F 66.2 °F 100% 30.11 in 7.0 mi NNE 5.8 mph - N/A   Clear
9:35 PM 66.2 °F 66.2 °F 100% 30.11 in 6.0 mi NNW 5.8 mph - N/A   Clear
9:55 PM 66.2 °F 66.2 °F 100% 30.12 in 6.0 mi North 5.8 mph - N/A   Clear
10:15 PM 66.2 °F 66.2 °F 100% 30.12 in 6.0 mi North 6.9 mph - N/A   Scattered Clouds
10:35 PM 66.2 °F 66.2 °F 100% 30.12 in 6.0 mi North 5.8 mph - N/A   Partly Cloudy
10:55 PM 66.2 °F 66.2 °F 100% 30.12 in 5.0 mi North 5.8 mph - N/A   Partly Cloudy
11:15 PM 66.2 °F 66.2 °F 100% 30.11 in 5.0 mi North 12.7 mph - N/A   Partly Cloudy
11:35 PM 66.2 °F 66.2 °F 100% 30.12 in 7.0 mi WNW 6.9 mph - N/A   Partly Cloudy
11:55 PM 66.2 °F 66.2 °F 100% 30.11 in 7.0 mi NW 10.4 mph - N/A   Clear